QPF
0.03 0.02 0.01 0.01 0.01 0.01 0.01 0.01 0.01 0.01 0.00 0.00 0.00 0.00 0.00 0.00 0.00 0.00 0.00 0.00 0.00 0.00 0.00 0.00 0.00 0.00 0.00 0.00 0.00 0.00 0.00 0.00 0.00 0.00 0.01 0.01 0.01 0.01 0.01 0.02 0.02 0.02 0.02
0.03 0.02 0.02 0.01 0.01 0.01 0.01 0.01 0.01 0.01 0.01 0.00 0.00 0.00 0.00 0.00 0.00 0.00 0.00 0.00 0.00 0.00 0.00 0.00 0.00 0.00 0.00 0.00 0.00 0.00 0.00 0.00 0.00 0.00 0.00 0.00 0.01 0.01 0.01 0.01 0.02 0.02 0.03
0.04 0.04 0.02 0.02 0.01 0.01 0.01 0.01 0.01 0.01 0.01 0.00 0.00 0.00 0.00 0.00 0.00 0.00 0.00 0.00 0.00 0.00 0.00 0.00 0.00 0.00 0.00 0.00 0.00 0.00 0.00 0.00 0.01 0.00 0.00 0.00 0.00 0.00 0.01 0.02 0.02 0.02 0.03
0.02 0.03 0.03 0.03 0.02 0.01 0.01 0.01 0.01 0.01 0.01 0.01 0.00 0.00 0.00 0.00 0.00 0.00 0.00 0.00 0.00 0.00 0.00 0.00 0.00 0.00 0.00 0.00 0.00 0.00 0.00 0.00 0.00 0.00 0.00 0.00 0.00 0.00 0.01 0.01 0.04 0.04 0.02
0.01 0.01 0.01 0.01 0.01 0.01 0.01 0.01 0.01 0.01 0.01 0.01 0.00 0.00 0.00 0.00 0.00 0.00 0.00 0.00 0.00 0.00 0.00 0.00 0.00 0.00 0.00 0.00 0.00 0.00 0.00 0.00 0.00 0.00 0.01 0.00 0.00 0.00 0.01 0.01 0.03 0.04 0.04
0.00 0.00 0.00 0.01 0.01 0.01 0.01 0.01 0.01 0.01 0.01 0.01 0.01 0.00 0.00 0.00 0.00 0.00 0.00 0.00 0.00 0.00 0.00 0.00 0.00 0.00 0.00 0.00 0.00 0.00 0.00 0.00 0.00 0.00 0.00 0.00 0.00 0.00 0.02 0.02 0.01 0.03 0.06
0.00 0.00 0.00 0.00 0.01 0.01 0.01 0.01 0.01 0.01 0.01 0.01 0.01 0.01 0.00 0.00 0.00 0.00 0.00 0.00 0.00 0.00 0.00 0.00 0.00 0.00 0.00 0.00 0.00 0.00 0.00 0.00 0.00 0.00 0.00 0.00 0.00 0.00 0.01 0.02 0.01 0.02 0.04
0.00 0.00 0.00 0.00 0.00 0.00 0.00 0.01 0.01 0.01 0.01 0.01 0.01 0.01 0.00 0.00 0.00 0.00 0.00 0.00 0.00 0.00 0.00 0.00 0.00 0.00 0.00 0.00 0.00 0.00 0.00 0.01 0.01 0.00 0.00 0.00 0.00 0.00 0.01 0.02 0.01 0.01 0.01
0.00 0.00 0.00 0.00 0.01 0.00 0.00 0.01 0.01 0.01 0.01 0.01 0.00 0.00 0.00 0.00 0.00 0.00 0.00 0.00 0.00 0.00 0.00 0.00 0.00 0.00 0.00 0.00 0.00 0.00 0.01 0.01 0.00 0.00 0.00 0.00 0.00 0.00 0.01 0.01 0.00 0.00 0.01
0.00 0.00 0.00 0.00 0.00 0.00 0.00 0.00 0.01 0.00 0.01 0.01 0.00 0.00 0.00 0.00 0.00 0.00 0.00 0.00 0.00 0.00 0.00 0.00 0.00 0.00 0.00 0.00 0.00 0.01 0.01 0.01 0.00 0.00 0.00 0.00 0.00 0.00 0.00 0.00 0.00 0.01 0.01
0.00 0.00 0.00 0.00 0.00 0.00 0.00 0.00 0.00 0.00 0.00 0.01 0.00 0.00 0.00 0.00 0.00 0.00 0.00 0.00 0.00 0.00 0.00 0.00 0.00 0.00 0.00 0.00 0.00 0.00 0.00 0.00 0.00 0.00 0.00 0.00 0.00 0.00 0.00 0.00 0.00 0.01 0.01
0.00 0.00 0.00 0.00 0.00 0.00 0.00 0.00 0.00 0.00 0.01 0.01 0.00 0.00 0.00 0.00 0.00 0.00 0.00 0.00 0.00 0.00 0.00 0.00 0.00 0.00 0.00 0.00 0.00 0.00 0.00 0.00 0.00 0.01 0.01 0.01 0.01 0.01 0.01 0.01 0.01 0.00 0.01
0.00 0.00 0.00 0.00 0.00 0.01 0.00 0.00 0.00 0.00 0.00 0.00 0.00 0.00 0.00 0.00 0.00 0.00 0.00 0.00 0.00 0.00 0.00 0.00 0.00 0.00 0.00 0.00 0.00 0.00 0.00 0.00 0.00 0.00 0.00 0.01 0.01 0.01 0.01 0.01 0.00 0.00 0.00
0.00 0.00 0.00 0.00 0.00 0.00 0.00 0.00 0.00 0.00 0.00 0.00 0.00 0.00 0.00 0.00 0.00 0.00 0.00 0.00 0.00 0.00 0.00 0.00 0.00 0.00 0.00 0.00 0.00 0.00 0.00 0.00 0.00 0.00 0.00 0.00 0.00 0.00 0.00 0.00 0.00 0.00 0.00
0.00 0.00 0.00 0.00 0.00 0.00 0.00 0.00 0.00 0.00 0.00 0.00 0.00 0.00 0.00 0.00 0.00 0.00 0.00 0.00 0.00 0.00 0.00 0.00 0.00 0.00 0.00 0.00 0.00 0.00 0.00 0.00 0.00 0.00 0.00 0.01 0.01 0.00 0.00 0.00 0.00 0.00 0.00
0.01 0.01 0.01 0.00 0.00 0.00 0.00 0.00 0.00 0.00 0.00 0.00 0.00 0.00 0.00 0.00 0.00 0.00 0.00 0.00 0.00 0.00 0.00 0.00 0.00 0.00 0.00 0.00 0.00 0.00 0.00 0.00 0.00 0.00 0.00 0.00 0.00 0.00 0.00 0.00 0.00 0.00 0.00
0.01 0.01 0.01 0.00 0.00 0.00 0.01 0.01 0.01 0.00 0.00 0.00 0.00 0.00 0.00 0.00 0.00 0.00 0.00 0.00 0.00 0.00 0.00 0.00 0.00 0.00 0.00 0.00 0.00 0.00 0.00 0.00 0.00 0.00 0.00 0.00 0.00 0.00 0.00 0.00 0.00 0.00 0.00
0.01 0.01 0.01 0.01 0.01 0.01 0.01 0.01 0.00 0.00 0.00 0.00 0.00 0.00 0.00 0.00 0.00 0.01 0.01 0.01 0.02 0.01 0.01 0.00 0.00 0.00 0.00 0.00 0.00 0.00 0.00 0.00 0.00 0.00 0.00 0.00 0.01 0.01 0.00 0.00 0.00 0.00 0.00
0.01 0.01 0.01 0.01 0.01 0.01 0.01 0.01 0.01 0.01 0.01 0.01 0.01 0.01 0.01 0.02 0.02 0.03 0.04 0.04 0.03 0.02 0.01 0.00 0.00 0.00 0.00 0.00 0.00 0.00 0.00 0.00 0.00 0.00 0.00 0.00 0.01 0.01 0.01 0.00 0.00 0.00 0.00
0.00 0.00 0.00 0.00 0.00 0.01 0.01 0.00 0.00 0.01 0.01 0.01 0.01 0.02 0.04 0.05 0.06 0.06 0.04 0.02 0.01 0.01 0.01 0.01 0.01 0.01 0.01 0.01 0.01 0.00 0.00 0.00 0.00 0.00 0.00 0.00 0.00 0.01 0.00 0.00 0.00 0.00 0.00
0.00 0.00 0.00 0.00 0.00 0.00 0.00 0.00 0.00 0.01 0.00 0.01 0.02 0.04 0.05 0.06 0.05 0.03 0.02 0.01 0.01 0.01 0.01 0.00 0.01 0.01 0.01 0.01 0.00 0.00 0.00 0.00 0.00 0.00 0.00 0.00 0.00 0.00 0.00 0.00 0.00 0.00 0.00
0.00 0.00 0.00 0.00 0.00 0.00 0.00 0.00 0.00 0.01 0.00 0.01 0.02 0.03 0.02 0.02 0.02 0.03 0.02 0.01 0.01 0.01 0.00 0.00 0.00 0.00 0.01 0.01 0.01 0.01 0.00 0.00 0.00 0.00 0.00 0.00 0.00 0.00 0.00 0.00 0.00 0.00 0.00
0.00 0.00 0.00 0.00 0.00 0.00 0.00 0.00 0.00 0.00 0.00 0.00 0.01 0.01 0.01 0.01 0.01 0.01 0.01 0.02 0.01 0.01 0.00 0.00 0.00 0.00 0.00 0.01 0.01 0.01 0.01 0.01 0.00 0.00 0.00 0.00 0.00 0.00 0.00 0.00 0.00 0.00 0.00
0.00 0.00 0.00 0.00 0.00 0.00 0.00 0.00 0.00 0.00 0.00 0.01 0.01 0.02 0.01 0.01 0.01 0.01 0.02 0.01 0.01 0.01 0.01 0.01 0.01 0.00 0.00 0.00 0.01 0.02 0.02 0.02 0.01 0.00 0.00 0.00 0.00 0.00 0.01 0.01 0.00 0.00 0.00
0.00 0.00 0.00 0.00 0.00 0.00 0.00 0.00 0.00 0.00 0.00 0.01 0.01 0.01 0.01 0.01 0.01 0.01 0.01 0.01 0.01 0.01 0.01 0.01 0.01 0.01 0.01 0.00 0.00 0.01 0.01 0.03 0.02 0.02 0.01 0.01 0.01 0.01 0.01 0.00 0.00 0.00 0.00
0.00 0.00 0.00 0.00 0.00 0.00 0.01 0.01 0.01 0.01 0.01 0.00 0.01 0.01 0.01 0.01 0.01 0.01 0.00 0.00 0.00 0.00 0.00 0.00 0.01 0.01 0.01 0.01 0.00 0.00 0.01 0.02 0.04 0.06 0.02 0.01 0.01 0.01 0.01 0.00 0.00 0.00 0.00
MSLP
1018.93 1018.92 1018.90 1018.86 1018.82 1018.78 1018.78 1018.82 1018.92 1019.08 1019.27 1019.49 1019.69 1019.86 1019.98 1020.02 1019.99 1019.91 1019.79 1019.65 1019.52 1019.41 1019.34 1019.32 1019.33 1019.39 1019.47 1019.57 1019.68 1019.78 1019.88 1019.95 1019.99 1020.01 1019.98 1019.92 1019.83 1019.70 1019.54 1019.36 1019.17 1018.97 1018.77
1019.11 1019.14 1019.15 1019.13 1019.08 1019.01 1018.97 1018.97 1019.05 1019.20 1019.41 1019.66 1019.92 1020.15 1020.32 1020.41 1020.42 1020.35 1020.24 1020.10 1019.96 1019.85 1019.78 1019.76 1019.77 1019.83 1019.90 1019.98 1020.06 1020.13 1020.18 1020.22 1020.23 1020.23 1020.20 1020.15 1020.07 1019.96 1019.82 1019.66 1019.48 1019.30 1019.11
1019.19 1019.30 1019.36 1019.37 1019.32 1019.24 1019.17 1019.14 1019.18 1019.32 1019.53 1019.81 1020.11 1020.39 1020.61 1020.74 1020.79 1020.75 1020.66 1020.53 1020.40 1020.30 1020.24 1020.23 1020.25 1020.30 1020.36 1020.41 1020.46 1020.49 1020.50 1020.51 1020.50 1020.49 1020.47 1020.44 1020.39 1020.31 1020.20 1020.06 1019.90 1019.72 1019.54
1019.17 1019.35 1019.48 1019.54 1019.52 1019.44 1019.35 1019.29 1019.32 1019.43 1019.64 1019.93 1020.25 1020.55 1020.82 1020.99 1021.08 1021.08 1021.01 1020.92 1020.82 1020.74 1020.70 1020.69 1020.72 1020.77 1020.81 1020.85 1020.86 1020.86 1020.85 1020.83 1020.82 1020.82 1020.82 1020.81 1020.79 1020.75 1020.67 1020.56 1020.41 1020.23 1020.04
1019.01 1019.28 1019.50 1019.61 1019.63 1019.58 1019.49 1019.42 1019.42 1019.52 1019.72 1020.00 1020.33 1020.66 1020.95 1021.16 1021.28 1021.32 1021.30 1021.24 1021.18 1021.13 1021.11 1021.13 1021.17 1021.21 1021.25 1021.26 1021.26 1021.24 1021.21 1021.18 1021.17 1021.19 1021.21 1021.24 1021.26 1021.25 1021.20 1021.11 1020.97 1020.79 1020.57
1018.72 1019.08 1019.38 1019.57 1019.64 1019.62 1019.55 1019.49 1019.48 1019.56 1019.75 1020.03 1020.35 1020.69 1021.00 1021.25 1021.41 1021.49 1021.51 1021.50 1021.48 1021.46 1021.48 1021.51 1021.56 1021.60 1021.64 1021.64 1021.63 1021.59 1021.56 1021.54 1021.54 1021.57 1021.63 1021.69 1021.75 1021.77 1021.75 1021.66 1021.53 1021.34 1021.10
1018.32 1018.76 1019.14 1019.40 1019.54 1019.57 1019.54 1019.49 1019.49 1019.57 1019.75 1020.02 1020.35 1020.69 1021.02 1021.29 1021.49 1021.61 1021.68 1021.71 1021.73 1021.75 1021.79 1021.84 1021.90 1021.95 1021.97 1021.98 1021.96 1021.92 1021.89 1021.88 1021.91 1021.96 1022.04 1022.13 1022.21 1022.25 1022.25 1022.18 1022.04 1021.85 1021.60
1017.87 1018.36 1018.80 1019.14 1019.35 1019.44 1019.45 1019.44 1019.46 1019.55 1019.74 1020.00 1020.33 1020.69 1021.03 1021.32 1021.56 1021.72 1021.84 1021.91 1021.97 1022.02 1022.08 1022.15 1022.21 1022.26 1022.28 1022.28 1022.27 1022.24 1022.22 1022.22 1022.26 1022.33 1022.42 1022.53 1022.62 1022.68 1022.69 1022.63 1022.50 1022.31 1022.07
1017.43 1017.95 1018.44 1018.83 1019.09 1019.25 1019.32 1019.36 1019.42 1019.54 1019.74 1020.02 1020.35 1020.72 1021.08 1021.40 1021.67 1021.88 1022.03 1022.14 1022.23 1022.31 1022.39 1022.46 1022.52 1022.57 1022.60 1022.60 1022.59 1022.57 1022.56 1022.58 1022.63 1022.71 1022.81 1022.92 1023.02 1023.08 1023.09 1023.04 1022.93 1022.75 1022.53
1017.06 1017.59 1018.10 1018.52 1018.84 1019.05 1019.18 1019.28 1019.40 1019.56 1019.79 1020.10 1020.45 1020.84 1021.22 1021.57 1021.86 1022.11 1022.30 1022.45 1022.57 1022.67 1022.76 1022.83 1022.89 1022.94 1022.96 1022.97 1022.97 1022.96 1022.97 1023.00 1023.05 1023.13 1023.23 1023.33 1023.42 1023.47 1023.49 1023.45 1023.35 1023.21 1023.02
1016.82 1017.33 1017.84 1018.28 1018.63 1018.89 1019.09 1019.26 1019.43 1019.65 1019.93 1020.27 1020.66 1021.06 1021.47 1021.84 1022.17 1022.45 1022.67 1022.85 1023.00 1023.12 1023.21 1023.29 1023.36 1023.40 1023.43 1023.44 1023.45 1023.46 1023.48 1023.52 1023.58 1023.65 1023.73 1023.82 1023.88 1023.92 1023.93 1023.90 1023.83 1023.72 1023.58
1016.73 1017.22 1017.70 1018.14 1018.51 1018.82 1019.08 1019.31 1019.56 1019.84 1020.17 1020.55 1020.97 1021.40 1021.83 1022.23 1022.59 1022.90 1023.15 1023.36 1023.53 1023.67 1023.78 1023.87 1023.93 1023.98 1024.02 1024.04 1024.06 1024.09 1024.12 1024.16 1024.22 1024.28 1024.34 1024.40 1024.44 1024.45 1024.45 1024.42 1024.36 1024.29 1024.19
1016.79 1017.24 1017.69 1018.12 1018.51 1018.85 1019.16 1019.47 1019.78 1020.13 1020.51 1020.93 1021.38 1021.84 1022.29 1022.71 1023.10 1023.43 1023.72 1023.96 1024.16 1024.31 1024.44 1024.54 1024.62 1024.68 1024.72 1024.76 1024.79 1024.83 1024.88 1024.92 1024.97 1025.02 1025.05 1025.07 1025.07 1025.06 1025.03 1024.99 1024.94 1024.89 1024.83
1016.96 1017.37 1017.80 1018.22 1018.61 1018.99 1019.35 1019.72 1020.09 1020.50 1020.93 1021.39 1021.87 1022.34 1022.81 1023.25 1023.66 1024.02 1024.34 1024.61 1024.84 1025.03 1025.17 1025.29 1025.38 1025.45 1025.51 1025.56 1025.61 1025.66 1025.71 1025.75 1025.79 1025.81 1025.82 1025.80 1025.76 1025.70 1025.64 1025.58 1025.52 1025.48 1025.44
1017.21 1017.59 1017.99 1018.40 1018.81 1019.22 1019.63 1020.05 1020.48 1020.94 1021.41 1021.90 1022.40 1022.89 1023.37 1023.83 1024.25 1024.64 1024.99 1025.29 1025.55 1025.77 1025.94 1026.08 1026.18 1026.26 1026.33 1026.39 1026.44 1026.50 1026.55 1026.58 1026.60 1026.60 1026.56 1026.50 1026.42 1026.31 1026.21 1026.12 1026.05 1026.00 1025.96
1017.47 1017.85 1018.25 1018.66 1019.08 1019.52 1019.97 1020.44 1020.93 1021.43 1021.93 1022.44 1022.95 1023.45 1023.94 1024.40 1024.84 1025.26 1025.63 1025.97 1026.26 1026.51 1026.70 1026.86 1026.97 1027.06 1027.13 1027.19 1027.24 1027.28 1027.32 1027.34 1027.33 1027.30 1027.23 1027.12 1026.99 1026.85 1026.70 1026.58 1026.47 1026.40 1026.35
1017.73 1018.12 1018.53 1018.95 1019.40 1019.87 1020.37 1020.88 1021.41 1021.94 1022.47 1022.99 1023.51 1024.01 1024.50 1024.97 1025.43 1025.86 1026.26 1026.62 1026.94 1027.21 1027.43 1027.59 1027.71 1027.80 1027.85 1027.89 1027.93 1027.95 1027.96 1027.96 1027.93 1027.86 1027.76 1027.62 1027.45 1027.27 1027.09 1026.92 1026.79 1026.69 1026.61
1017.97 1018.39 1018.81 1019.27 1019.75 1020.26 1020.80 1021.35 1021.91 1022.47 1023.02 1023.55 1024.07 1024.56 1025.05 1025.53 1025.99 1026.44 1026.86 1027.24 1027.58 1027.87 1028.09 1028.25 1028.36 1028.43 1028.46 1028.47 1028.47 1028.47 1028.45 1028.41 1028.36 1028.27 1028.14 1027.97 1027.78 1027.57 1027.36 1027.17 1027.01 1026.88 1026.79
1018.19 1018.64 1019.10 1019.59 1020.11 1020.66 1021.24 1021.83 1022.43 1023.00 1023.56 1024.10 1024.62 1025.11 1025.60 1026.07 1026.54 1026.99 1027.43 1027.82 1028.16 1028.45 1028.66 1028.81 1028.90 1028.93 1028.93 1028.90 1028.86 1028.82 1028.77 1028.71 1028.63 1028.53 1028.39 1028.21 1028.01 1027.80 1027.58 1027.37 1027.20 1027.05 1026.93
1018.37 1018.87 1019.37 1019.91 1020.47 1021.06 1021.68 1022.31 1022.93 1023.53 1024.10 1024.64 1025.16 1025.65 1026.13 1026.60 1027.07 1027.52 1027.95 1028.34 1028.68 1028.94 1029.14 1029.26 1029.31 1029.30 1029.26 1029.19 1029.11 1029.04 1028.96 1028.88 1028.80 1028.69 1028.55 1028.39 1028.20 1027.99 1027.78 1027.58 1027.40 1027.24 1027.10
1018.53 1019.07 1019.62 1020.20 1020.81 1021.44 1022.10 1022.76 1023.40 1024.02 1024.61 1025.16 1025.67 1026.17 1026.64 1027.11 1027.57 1028.01 1028.42 1028.79 1029.10 1029.34 1029.50 1029.58 1029.59 1029.54 1029.45 1029.35 1029.25 1029.15 1029.06 1028.97 1028.89 1028.80 1028.68 1028.54 1028.38 1028.20 1028.00 1027.82 1027.64 1027.48 1027.33
1018.65 1019.23 1019.83 1020.45 1021.10 1021.78 1022.47 1023.16 1023.83 1024.47 1025.07 1025.62 1026.15 1026.64 1027.11 1027.57 1028.01 1028.43 1028.81 1029.15 1029.42 1029.62 1029.73 1029.77 1029.73 1029.65 1029.53 1029.41 1029.28 1029.18 1029.09 1029.02 1028.96 1028.89 1028.81 1028.70 1028.57 1028.42 1028.26 1028.09 1027.92 1027.75 1027.59
1018.71 1019.33 1019.97 1020.63 1021.32 1022.04 1022.76 1023.48 1024.17 1024.83 1025.44 1026.01 1026.54 1027.04 1027.51 1027.95 1028.38 1028.77 1029.11 1029.41 1029.63 1029.78 1029.84 1029.83 1029.76 1029.65 1029.52 1029.38 1029.26 1029.16 1029.10 1029.05 1029.02 1028.99 1028.94 1028.87 1028.78 1028.65 1028.51 1028.35 1028.18 1028.00 1027.82
1018.70 1019.35 1020.03 1020.73 1021.46 1022.21 1022.96 1023.70 1024.42 1025.09 1025.72 1026.31 1026.85 1027.35 1027.82 1028.25 1028.65 1029.01 1029.31 1029.56 1029.73 1029.83 1029.84 1029.80 1029.70 1029.56 1029.43 1029.30 1029.19 1029.12 1029.09 1029.08 1029.08 1029.08 1029.06 1029.02 1028.94 1028.83 1028.70 1028.54 1028.36 1028.16 1027.95
1018.59 1019.29 1020.00 1020.74 1021.50 1022.27 1023.05 1023.81 1024.54 1025.24 1025.89 1026.49 1027.04 1027.56 1028.02 1028.45 1028.83 1029.16 1029.42 1029.62 1029.74 1029.79 1029.76 1029.69 1029.57 1029.43 1029.30 1029.19 1029.11 1029.07 1029.07 1029.09 1029.12 1029.14 1029.14 1029.10 1029.03 1028.92 1028.76 1028.58 1028.38 1028.15 1027.90
1018.41 1019.14 1019.88 1020.65 1021.44 1022.23 1023.03 1023.80 1024.55 1025.26 1025.93 1026.55 1027.13 1027.65 1028.13 1028.56 1028.92 1029.23 1029.46 1029.62 1029.70 1029.71 1029.65 1029.55 1029.43 1029.30 1029.18 1029.10 1029.05 1029.04 1029.06 1029.10 1029.14 1029.16 1029.15 1029.10 1028.99 1028.85 1028.66 1028.44 1028.19 1027.92 1027.64
Thickness
5712 5714 5715 5715 5715 5714 5714 5713 5713 5712 5712 5711 5710 5709 5708 5709 5710 5710 5710 5711 5710 5709 5708 5706 5704 5703 5701 5698 5697 5695 5692 5690 5690 5688 5686 5687 5689 5689 5690 5691 5693 5694 5695
5708 5710 5711 5712 5712 5712 5711 5711 5711 5710 5711 5710 5709 5709 5707 5706 5707 5707 5708 5708 5708 5707 5706 5704 5702 5701 5699 5697 5695 5694 5690 5688 5688 5686 5683 5680 5682 5685 5687 5688 5689 5690 5692
5707 5707 5708 5709 5710 5709 5710 5711 5710 5709 5709 5709 5708 5707 5705 5704 5704 5704 5705 5705 5706 5705 5704 5703 5701 5700 5698 5696 5694 5693 5691 5687 5686 5686 5684 5678 5676 5678 5682 5684 5685 5686 5687
5708 5708 5708 5708 5709 5710 5710 5710 5709 5708 5708 5707 5707 5705 5702 5700 5700 5701 5702 5703 5703 5703 5702 5701 5700 5699 5697 5695 5694 5693 5691 5689 5686 5685 5684 5683 5681 5678 5676 5679 5681 5683 5684
5710 5709 5709 5710 5710 5710 5710 5709 5708 5707 5707 5706 5705 5704 5701 5700 5699 5699 5700 5700 5700 5700 5700 5699 5698 5697 5695 5694 5693 5692 5691 5689 5687 5685 5682 5681 5679 5678 5676 5674 5676 5678 5680
5712 5711 5711 5711 5710 5710 5709 5707 5706 5706 5706 5705 5704 5702 5700 5699 5697 5697 5697 5697 5697 5697 5698 5697 5697 5695 5694 5693 5692 5691 5690 5688 5687 5685 5683 5681 5679 5677 5675 5672 5671 5672 5675
5713 5711 5709 5708 5708 5708 5707 5706 5705 5704 5704 5703 5702 5702 5700 5698 5697 5696 5695 5694 5694 5694 5695 5695 5694 5693 5692 5691 5690 5689 5688 5687 5685 5684 5682 5681 5680 5679 5676 5673 5670 5669 5670
5714 5713 5711 5710 5708 5708 5707 5705 5704 5703 5703 5702 5701 5700 5699 5697 5696 5695 5694 5694 5693 5693 5693 5693 5692 5691 5691 5689 5688 5687 5686 5685 5684 5683 5681 5680 5679 5678 5676 5673 5670 5667 5666
5716 5715 5713 5711 5709 5708 5707 5706 5704 5702 5702 5701 5700 5698 5697 5696 5695 5694 5694 5693 5692 5692 5692 5691 5690 5689 5688 5687 5686 5684 5683 5682 5681 5680 5679 5678 5677 5676 5674 5673 5671 5667 5663
5716 5715 5714 5712 5711 5709 5708 5706 5704 5703 5701 5700 5698 5697 5696 5695 5694 5693 5692 5691 5691 5690 5689 5688 5687 5686 5685 5684 5683 5681 5680 5679 5678 5677 5676 5675 5674 5673 5672 5670 5669 5667 5664
5717 5716 5715 5713 5711 5709 5706 5704 5702 5701 5699 5698 5697 5695 5694 5693 5692 5690 5690 5689 5688 5687 5687 5686 5684 5683 5682 5681 5680 5678 5677 5676 5674 5673 5672 5671 5670 5669 5668 5667 5665 5663 5662
5719 5718 5715 5712 5709 5707 5705 5704 5702 5700 5699 5697 5695 5693 5692 5691 5689 5688 5687 5687 5686 5685 5684 5683 5681 5680 5679 5678 5676 5675 5674 5672 5671 5669 5668 5667 5666 5664 5663 5662 5661 5659 5658
5718 5716 5713 5711 5709 5707 5706 5704 5702 5700 5698 5696 5693 5691 5689 5688 5687 5686 5685 5684 5683 5682 5681 5680 5678 5677 5676 5674 5673 5672 5670 5669 5667 5666 5664 5663 5661 5659 5658 5657 5656 5654 5654
5718 5715 5712 5710 5710 5708 5707 5704 5702 5700 5698 5694 5692 5689 5687 5686 5685 5684 5682 5681 5680 5679 5677 5676 5675 5674 5672 5671 5669 5668 5666 5664 5663 5662 5660 5659 5657 5655 5654 5652 5650 5649 5647
5717 5716 5713 5711 5710 5707 5706 5704 5702 5699 5697 5693 5690 5688 5686 5685 5683 5681 5679 5678 5677 5676 5674 5673 5672 5670 5669 5668 5666 5664 5662 5660 5658 5657 5656 5655 5653 5652 5650 5648 5645 5643 5641
5719 5717 5715 5713 5710 5708 5706 5703 5701 5699 5696 5692 5690 5687 5685 5682 5680 5678 5676 5675 5673 5672 5670 5669 5668 5667 5666 5665 5664 5661 5658 5655 5653 5651 5650 5649 5648 5647 5645 5644 5642 5639 5636
5721 5719 5718 5716 5714 5711 5708 5704 5702 5699 5695 5692 5689 5686 5683 5680 5678 5676 5673 5671 5669 5668 5666 5665 5664 5663 5662 5662 5660 5657 5654 5651 5648 5646 5644 5643 5642 5640 5638 5637 5635 5633 5632
5722 5721 5719 5717 5716 5713 5710 5706 5702 5698 5695 5691 5688 5686 5682 5679 5676 5673 5671 5668 5666 5664 5663 5662 5660 5659 5658 5658 5656 5653 5649 5646 5644 5641 5639 5637 5635 5634 5631 5629 5627 5625 5624
5725 5723 5722 5719 5716 5713 5710 5705 5700 5696 5693 5690 5688 5685 5682 5678 5674 5671 5668 5666 5663 5661 5659 5658 5657 5655 5654 5654 5652 5649 5644 5641 5639 5637 5635 5632 5630 5629 5627 5624 5620 5618 5617
5725 5723 5721 5718 5714 5712 5709 5703 5698 5695 5692 5691 5688 5685 5681 5677 5673 5670 5666 5663 5661 5659 5657 5654 5653 5651 5650 5649 5647 5645 5640 5636 5634 5631 5630 5628 5626 5624 5621 5617 5614 5611 5609
5723 5722 5718 5715 5713 5710 5707 5701 5697 5695 5694 5691 5687 5683 5679 5676 5672 5668 5664 5661 5658 5655 5652 5650 5648 5646 5645 5644 5643 5641 5636 5632 5629 5626 5624 5622 5621 5618 5615 5612 5608 5606 5603
5719 5718 5714 5711 5710 5708 5705 5700 5697 5697 5693 5688 5684 5680 5676 5673 5670 5665 5661 5658 5654 5650 5647 5644 5642 5641 5641 5639 5638 5636 5633 5630 5625 5621 5619 5617 5615 5612 5608 5605 5602 5599 5596
5716 5714 5712 5708 5706 5705 5703 5699 5697 5694 5690 5685 5681 5677 5673 5669 5666 5662 5657 5653 5650 5646 5643 5640 5637 5636 5635 5634 5633 5631 5628 5625 5620 5617 5614 5611 5608 5604 5600 5597 5594 5591 5586
5712 5711 5708 5705 5702 5701 5700 5699 5696 5692 5687 5681 5676 5672 5668 5664 5661 5658 5655 5651 5647 5643 5640 5636 5633 5631 5629 5628 5626 5624 5621 5618 5614 5610 5607 5603 5600 5596 5592 5589 5585 5581 5577
5709 5708 5706 5703 5700 5698 5696 5695 5692 5688 5682 5677 5672 5668 5665 5661 5656 5653 5651 5648 5646 5643 5639 5635 5631 5627 5624 5624 5623 5618 5615 5611 5607 5603 5598 5593 5589 5585 5582 5578 5575 5571 5567
5705 5703 5701 5699 5697 5694 5692 5690 5687 5684 5678 5672 5667 5664 5659 5655 5652 5648 5644 5643 5641 5639 5637 5633 5629 5626 5623 5620 5617 5614 5610 5606 5601 5595 5589 5585 5581 5577 5573 5570 5566 5562 5559